TimeAKST,TemperatureF,Dew PointF,Humidity,Sea Level PressureIn,VisibilityMPH,Wind Direction,Wind SpeedMPH,Gust SpeedMPH,PrecipitationIn,Events,Conditions,WindDirDegrees,DateUTC
12:53 AM,-2.9,-11.9,65,30.05,10.0,NNW,5.8,-,N/A,,Clear,330,2012-11-04 08:53:00
1:53 AM,-5.1,-13.0,69,30.05,10.0,NNE,5.8,-,N/A,,Clear,20,2012-11-04 09:53:00
1:53 AM,-7.1,-14.1,72,30.04,10.0,North,4.6,-,N/A,,Clear,360,2012-11-04 10:53:00
3:53 AM,-4.0,-11.9,69,30.03,10.0,North,4.6,-,N/A,,Clear,10,2012-11-04 12:53:00
4:53 AM,-4.0,-13.0,65,30.02,10.0,NNW,5.8,-,N/A,,Clear,330,2012-11-04 13:53:00
5:53 AM,-6.0,-14.1,68,30.01,10.0,Calm,Calm,-,N/A,,Clear,0,2012-11-04 14:53:00
6:53 AM,-2.0,-13.0,60,30.01,10.0,North,5.8,-,N/A,,Clear,350,2012-11-04 15:53:00
7:53 AM,-2.0,-11.9,63,30.00,10.0,North,6.9,-,N/A,,Partly Cloudy,350,2012-11-04 16:53:00
8:53 AM,-2.9,-13.0,62,30.01,10.0,NW,4.6,-,N/A,,Partly Cloudy,310,2012-11-04 17:53:00
9:53 AM,-5.1,-13.0,69,30.01,10.0,NW,4.6,-,N/A,,Clear,310,2012-11-04 18:53:00
10:53 AM,-2.0,-11.9,63,30.00,10.0,NNW,6.9,-,N/A,,Clear,330,2012-11-04 19:53:00
11:53 AM,1.0,-11.0,57,29.99,10.0,NNW,8.1,-,N/A,,Clear,330,2012-11-04 20:53:00
12:53 PM,1.9,-9.9,58,29.99,10.0,NW,4.6,-,N/A,,Clear,320,2012-11-04 21:53:00
1:53 PM,1.9,-11.0,55,29.98,10.0,NW,5.8,-,N/A,,Clear,310,2012-11-04 22:53:00
2:53 PM,1.9,-11.0,55,29.97,10.0,NNW,5.8,-,N/A,,Clear,330,2012-11-04 23:53:00
3:53 PM,-0.0,-11.9,57,29.96,10.0,NW,6.9,-,N/A,,Clear,320,2012-11-05 00:53:00
4:53 PM,-0.9,-13.0,57,29.97,10.0,NNW,4.6,-,N/A,,Clear,330,2012-11-05 01:53:00
5:53 PM,-4.0,-14.1,62,29.98,10.0,NNW,5.8,-,N/A,,Clear,340,2012-11-05 02:53:00
6:53 PM,-4.0,-14.1,62,29.99,10.0,NNW,5.8,-,N/A,,Clear,340,2012-11-05 03:53:00
7:53 PM,-6.0,-14.1,68,29.99,10.0,North,4.6,-,N/A,,Clear,350,2012-11-05 04:53:00
8:53 PM,-8.0,-15.0,71,30.00,10.0,North,4.6,-,N/A,,Clear,360,2012-11-05 05:53:00
9:53 PM,-8.0,-15.0,71,30.01,10.0,NNW,4.6,-,N/A,,Clear,330,2012-11-05 06:53:00
10:53 PM,-9.0,-16.1,71,30.02,10.0,NNW,4.6,-,N/A,,Clear,330,2012-11-05 07:53:00